weather.gov     
National Weather Service

Regional Weather Roundup
NWS Homepage
This page is being discontinued on March 12, 2014.
The same data is available at this site. Please update your bookmarks.
Thank you, and we apologize for the inconvenience.
Please send an email to SR-SRH.Webmaster@noaa.gov with any concerns.


Current Version
Previous Version:    01  02  03  04  05  06  07  08  09  10  11  12  13  14  15  16  17  18  19  20  21  22  23  24  25  
[Printable]
743
ASUS42 KILM 210210
RWRILM
RWRILM
REGIONAL HOURLY WEATHER ROUNDUP
NATIONAL WEATHER SERVICE WILMINGTON NC
900 PM EST THU NOV 20 2014

NOTE: "FAIR" INDICATES FEW OR NO CLOUDS BELOW 12,000 FEET WITH NO
SIGNIFICANT WEATHER AND/OR OBSTRUCTIONS TO VISIBILITY.

...............WFO WILMINGTON COUNTY WARNING AREA...............

......COASTAL NC AND SC COUNTIES......

CITY           SKY/WX    TMP DP  RH WIND       PRES   REMARKS
WILMINGTON     MOCLDY    51  41  68 SW8       30.16R
SOUTHPORT      MOCLDY    56  43  61 W10G20    30.17R
N MYRTLE BEACH MOCLDY    54  35  48 SW10      30.17R
MYRTLE BEACH   CLEAR     52  36  54 SW8       30.19R

......INLAND NC AND SC COUNTIES.......

CITY           SKY/WX    TMP DP  RH WIND       PRES   REMARKS
LUMBERTON      CLEAR     48  33  56 SW8       30.14R
ELIZABETHTOWN  CLEAR     49  33  56 SW3       30.14S
WHITEVILLE     PTCLDY    48  36  61 SW3       30.16R
FLORENCE       CLEAR     47  32  56 SW3       30.17R
DARLINGTON     CLEAR     52  30  43 SW9       30.17R

....................REST OF NORTH CAROLINA......................

.........EASTERN NC.........

CITY           SKY/WX    TMP DP  RH WIND       PRES   REMARKS
CAPE HATTERAS  CLEAR     53  41  63 W14G23    30.11S
JACKSONVILLE   CLEAR     41  34  75 S7        30.15R
MOREHEAD CITY  CLEAR     56  43  61 W15       30.14R
KENANSVILLE    CLEAR     42  32  68 CALM      30.13S
NEW BERN       CLEAR     48  37  65 SW8       30.14R
ELIZABETH CITY CLEAR     47  32  56 SW9       30.07R

.........CENTRAL NC.........

CITY           SKY/WX    TMP DP  RH WIND       PRES   REMARKS
RALEIGH DURHAM CLEAR     46  27  47 W3        30.10R
ROCKY MOUNT    CLEAR     42  29  59 S5        30.09R
ROANOKE RAPIDS NOT AVBL
FAYETTEVILLE   CLEAR     45  29  53 SW9       30.12R
HOFFMAN        CLEAR     45  33  61 SW9       30.14R

.........WESTERN NC.........

CITY           SKY/WX    TMP DP  RH WIND       PRES   REMARKS
CHARLOTTE      CLEAR     47  28  47 SW7       30.13R
GREENSBORO     CLEAR     42  19  39 SW5       30.09R
HICKORY        NOT AVBL
BOONE          NOT AVBL
ASHEVILLE      NOT AVBL

.....................REST OF SOUTH CAROLINA.....................

.........EASTERN SC.........

CITY           SKY/WX    TMP DP  RH WIND       PRES   REMARKS
CHARLESTON     CLEAR     51  39  63 SW8       30.22R
BEAUFORT MCAS  CLEAR     49  40  71 SW7       30.24R
HILTON HEAD    CLEAR     48  43  81 S3        30.25S

.........CENTRAL SC.........

CITY           SKY/WX    TMP DP  RH WIND       PRES   REMARKS
COLUMBIA       PTCLDY    50  34  54 SW7       30.18R
ORANGEBURG     PTCLDY    47  35  63 SW6       30.20R
SUMTER SHAW    PTCLDY    47  34  59 SW5       30.17R

.........WESTERN SC.........

CITY           SKY/WX    TMP DP  RH WIND       PRES   REMARKS
GREENVILLE     NOT AVBL
ROCK HILL      CLEAR     44  30  57 SW8       30.14R
ANDERSON       CLEAR     50  31  48 W9        30.19R
CLEMSON        NOT AVBL
GREENWOOD      CLEAR     50  29  44 W7        30.20R


...................COASTAL AND OFFSHORE REPORTS..................

................LOCAL PIERS AND NC RESERVE................


STATION/POSITION TIME  SKY/WX   TEMP    WIND        PRES    VSBY
                                AIR SEA DIR/SP/G
                 (UTC)          (F)     (DEG/KT/KT) (MB)    (MI)
JOHNY MRCER PIER 0200            54 61  230/  8/ 10 1020.5S
NC RESRV MASNBRO 0100            54     220/  4     1020.0S
OCEAN CREST PIER 0200            59 56  220/ 20/ 23 1020.4R
SPRINGMAID  PIER 0200            54 56  230/  9/ 12 1022.1R


................COASTAL AND OFFSHORE BUOYS................


STATION/POSITION TIME  SKY/WX   TEMP    WIND        PRES    VSBY
                                AIR SEA DIR/SP/G
                 (UTC)          (F)     (DEG/KT/KT) (MB)    (MI)
DIMNDSHOAL 41025 0200            61     250/ 21/ 29 1019.4R
WVE H/P(F/S)=  7/ 7 WND WVE H/P(F/S)=  7/ 7 SWL H/P/D(F/S/D)=  2/ 90/11

CAPE LOOKOUT     0100            58     250/ 17/ 20 1020.0R
ONSLOW BAY 41036 0200            62 69  260/ 23/ 29 1020.1R
WVE H/P(F/S)=  6/ 6 WND WVE H/P(F/S)=  7/ 6

5 WRITEBCH 41038 0100            56 60  240/ 14/ 17 1020.7R
MASONBORO  41110 0200               60                N/A
WVE H/P(F/S)=  3/ 5 WND WVE H/P(F/S)=  3/ 5

WILM HARBR 41108 0200               61                N/A
WVE H/P(F/S)=  6/ 6 WND WVE H/P(F/S)=  7/ 6

27WRITEBCH 41037 0100            58 67  270/ 17/ 23 1021.0R
FRYING PAN 41013 0200            62 65  240/ 21/ 25 1022.3R
WVE H/P(F/S)=  5/ 5 WND WVE H/P(F/S)=  5/ 5

SUNST NRSH 41024 0100            58     250/ 16/ 19 1020.0R
CAPRS NRSH 41029 0100            59     240/ 17/ 19   N/A
EDISTO     41004 0200            63 72  250/ 19/ 25 1022.7R
WVE H/P(F/S)=  4/ 5 WND WVE H/P(F/S)=  5/ 5 SWL H/P/D(F/S/D)=  2/ 8



..........OFFSHORE BUOYS BEYOND 100 NM OFFSHORE...........
.....IN A TRIANGLE---HAT TO BERMUDA TO BAHAMAS TO HAT.....


STATION/POSITION TIME  SKY/WX   TEMP    WIND        PRES    VSBY
                                AIR SEA DIR/SP/G
                 (UTC)          (F)     (DEG/KT/KT) (MB)    (MI)
150E HAT   41001 NOT AVBL
W BERMUDA  41048 0108            69 75  250/  8/ 12 1021.6
WVE H/P(F/S)=  4/ 7 WND WVE H/P(F/S)=  2/ 4 SWL H/P/D(F/S/D)=  3/ 20/ 7

ATLANTIC S 41049 0118            80 79  140/  8/ 10 1020.7
WVE H/P(F/S)=  8/10 WND WVE H/P(F/S)=  2/ 3 SWL H/P/D(F/S/D)=  8/340/10

E BAHAMAS  41046 0128            81 82   90/  8/ 10 1019.0
WVE H/P(F/S)=  6/ 8 WND WVE H/P(F/S)=  2/ 4 SWL H/P/D(F/S/D)=  5/ 80/ 8

NE BAHAMAS 41047 0112            74 78   30/ 17/ 21 1020.2
WVE H/P(F/S)=  7/ 8 WND WVE H/P(F/S)=  7/ 8 SWL H/P/D(F/S/D)=  3/ 60/15

120E CANVRL41010 0200            70 78   30/ 12/ 16 1023.3S
WVE H/P(F/S)=  3/ 7 WND WVE H/P(F/S)=  2/ 5 SWL H/P/D(F/S/D)=  3/ 90/ 7


END




U.S. Dept. of Commerce
NOAA National Weather Service
1325 East West Highway
Silver Spring, MD 20910
E-mail: w-nws.webmaster@noaa.gov
Page last modified: May 16, 2007
NATIONAL WEATHER SERVICE: for Safety, for Work, for Fun - FOR LIFE